| time (UTC) | temp F | wind direction | speed MPH | gust MPH | rain 1hr in | rain 24hr in | rain mn in | humidity % | barometer mb |
| 20260903103056 | 53 | 21 | 1.0 | 6.0 | 0.01 | 0.21 | 0.01 | 85 | 1003.7 |
| 20260903102529 | 54 | 107 | 1.0 | 5.0 | 0.00 | 0.20 | 0.00 | 82 | 1003.6 |
| 20260903102030 | 54 | 148 | 2.0 | 5.0 | 0.00 | 0.20 | 0.00 | 82 | 1003.7 |
| 20260903101601 | 54 | 86 | 1.0 | 4.0 | 0.00 | 0.20 | 0.00 | 82 | 1003.7 |
| 20260903101032 | 54 | 0 | 0.0 | 5.0 | 0.00 | 0.20 | 0.00 | 82 | 1003.7 |
| 20260903100531 | 54 | 0 | 1.0 | 5.0 | 0.00 | 0.20 | 0.00 | 82 | 1003.7 |
| 20260903100051 | 54 | 169 | 2.0 | 5.0 | 0.00 | 0.20 | 0.00 | 82 | 1003.6 |
| 20260903095534 | 54 | 0 | 1.0 | 5.0 | 0.00 | 0.20 | 0.00 | 83 | 1003.6 |
| 20260903095030 | 54 | 0 | 1.0 | 5.0 | 0.00 | 0.20 | 0.00 | 83 | 1003.7 |
| 20260903094554 | 54 | 0 | 1.0 | 5.0 | 0.00 | 0.20 | 0.00 | 83 | 1003.7 |
| 20260903094031 | 54 | 0 | 0.0 | 3.0 | 0.00 | 0.20 | 0.00 | 83 | 1003.7 |
| 20260903093532 | 54 | 15 | 0.0 | 5.0 | 0.00 | 0.20 | 0.00 | 85 | 1003.7 |
| 20260903093058 | 53 | 151 | 0.0 | 5.0 | 0.00 | 0.20 | 0.00 | 85 | 1003.7 |
| 20260903092532 | 53 | 104 | 0.0 | 4.0 | 0.00 | 0.20 | 0.00 | 86 | 1003.7 |
| 20260903092033 | 53 | 257 | 1.0 | 4.0 | 0.00 | 0.20 | 0.00 | 85 | 1003.7 |
| 20260903091603 | 53 | 341 | 0.0 | 3.0 | 0.00 | 0.20 | 0.00 | 85 | 1003.6 |
| 20260903091030 | 53 | 157 | 0.0 | 2.0 | 0.00 | 0.20 | 0.00 | 86 | 1003.7 |
| 20260903090531 | 53 | 0 | 0.0 | 2.0 | 0.00 | 0.20 | 0.00 | 86 | 1003.6 |
| 20260903090051 | 52 | 0 | 0.0 | 2.0 | 0.00 | 0.20 | 0.00 | 86 | 1003.6 |
| 20260903085530 | 52 | 0 | 0.0 | 4.0 | 0.00 | 0.20 | 0.00 | 87 | 1003.6 |
| 20260903085034 | 52 | 276 | 0.0 | 4.0 | 0.00 | 0.20 | 0.00 | 87 | 1003.6 |
| 20260903084552 | 52 | 0 | 0.0 | 7.0 | 0.00 | 0.20 | 0.00 | 87 | 1003.4 |
| 20260903084031 | 52 | 144 | 1.0 | 7.0 | 0.00 | 0.20 | 0.00 | 86 | 1003.4 |
| 20260903083535 | 52 | 155 | 1.0 | 5.0 | 0.00 | 0.20 | 0.00 | 86 | 1003.5 |
| 20260903083050 | 52 | 158 | 0.0 | 5.0 | 0.00 | 0.20 | 0.00 | 87 | 1003.6 |
| 20260903082530 | 52 | 158 | 1.0 | 5.0 | 0.00 | 0.20 | 0.00 | 85 | 1003.5 |
| 20260903082030 | 52 | 146 | 1.0 | 4.0 | 0.00 | 0.20 | 0.00 | 85 | 1003.5 |
| 20260903081553 | 52 | 0 | 2.0 | 4.0 | 0.00 | 0.20 | 0.00 | 84 | 1003.4 |
| 20260903081030 | 51 | 153 | 1.0 | 4.0 | 0.00 | 0.20 | 0.00 | 85 | 1003.4 |
| 20260903080530 | 51 | 122 | 1.0 | 4.0 | 0.00 | 0.20 | 0.00 | 87 | 1003.3 |
| 20260903080053 | 51 | 152 | 1.0 | 4.0 | 0.00 | 0.20 | 0.00 | 89 | 1003.3 |
| 20260903075531 | 50 | 149 | 2.0 | 4.0 | 0.00 | 0.20 | 0.00 | 91 | 1003.3 |
| 20260903075032 | 50 | 141 | 1.0 | 4.0 | 0.00 | 0.20 | 0.00 | 91 | 1003.4 |
| 20260903074602 | 50 | 151 | 2.0 | 4.0 | 0.00 | 0.20 | 0.00 | 91 | 1003.4 |
| 20260903074030 | 50 | 152 | 0.0 | 4.0 | 0.00 | 0.20 | 0.00 | 91 | 1003.5 |
| 20260903073531 | 50 | 139 | 1.0 | 4.0 | 0.00 | 0.20 | 0.00 | 91 | 1003.5 |
| 20260903073101 | 50 | 133 | 1.0 | 2.0 | 0.00 | 0.20 | 0.00 | 91 | 1003.4 |
| 20260903072530 | 50 | 152 | 0.0 | 3.0 | 0.00 | 0.20 | 0.00 | 92 | 1003.5 |
| 20260903072030 | 49 | 0 | 0.0 | 3.0 | 0.00 | 0.20 | 0.00 | 91 | 1003.4 |
| 20260903071600 | 49 | 145 | 0.0 | 3.0 | 0.00 | 0.20 | 0.00 | 91 | 1003.5 |
| 20260903071031 | 49 | 140 | 1.0 | 5.0 | 0.00 | 0.20 | 0.00 | 91 | 1003.5 |
| 20260903070530 | 49 | 105 | 1.0 | 5.0 | 0.00 | 0.20 | 0.00 | 92 | 1003.5 |
| 20260903070051 | 49 | 185 | 1.0 | 5.0 | 0.00 | 0.20 | 0.00 | 92 | 1003.5 |
| 20260903065531 | 49 | 137 | 2.0 | 5.0 | 0.00 | 0.22 | 0.00 | 92 | 1003.4 |
| 20260903065035 | 49 | 155 | 1.0 | 6.0 | 0.00 | 0.22 | 0.00 | 92 | 1003.5 |
| 20260903064601 | 49 | 130 | 2.0 | 6.0 | 0.00 | 0.22 | 0.00 | 92 | 1003.3 |
| 20260903064030 | 49 | 137 | 2.0 | 5.0 | 0.00 | 0.22 | 0.00 | 92 | 1003.3 |
| 20260903063532 | 49 | 135 | 1.0 | 5.0 | 0.00 | 0.22 | 0.00 | 92 | 1003.3 |
| 20260903063058 | 49 | 162 | 1.0 | 5.0 | 0.00 | 0.22 | 0.00 | 92 | 1003.2 |
| 20260903062530 | 48 | 146 | 1.0 | 5.0 | 0.00 | 0.22 | 0.00 | 92 | 1003.3 |
| 20260903062030 | 48 | 155 | 2.0 | 7.0 | 0.00 | 0.22 | 0.00 | 92 | 1003.3 |
| 20260903061551 | 48 | 141 | 2.0 | 7.0 | 0.00 | 0.22 | 0.00 | 93 | 1003.1 |
| 20260903061031 | 48 | 158 | 2.0 | 4.0 | 0.00 | 0.22 | 0.00 | 93 | 1003.2 |
| 20260903060529 | 47 | 152 | 1.0 | 4.0 | 0.00 | 0.22 | 0.00 | 93 | 1003.2 |
| 20260903060056 | 47 | 153 | 2.0 | 5.0 | 0.00 | 0.22 | 0.00 | 93 | 1003.1 |
| 20260903055533 | 47 | 150 | 2.0 | 5.0 | 0.00 | 0.22 | 0.00 | 93 | 1003.0 |
| 20260903055032 | 47 | 146 | 3.0 | 5.0 | 0.00 | 0.22 | 0.00 | 92 | 1003.0 |
| 20260903054550 | 47 | 150 | 2.0 | 5.0 | 0.00 | 0.22 | 0.00 | 92 | 1003.0 |
| 20260903054034 | 47 | 187 | 3.0 | 5.0 | 0.00 | 0.22 | 0.00 | 92 | 1003.0 |
| 20260903053534 | 48 | 137 | 2.0 | 5.0 | 0.00 | 0.22 | 0.00 | 92 | 1003.0 |
| 20260903053056 | 48 | 172 | 3.0 | 6.0 | 0.00 | 0.22 | 0.00 | 91 | 1002.9 |
| 20260903052530 | 48 | 161 | 3.0 | 6.0 | 0.00 | 0.22 | 0.00 | 91 | 1002.8 |
| 20260903052031 | 48 | 146 | 1.0 | 4.0 | 0.00 | 0.22 | 0.00 | 93 | 1002.9 |
| 20260903051608 | 47 | 146 | 1.0 | 4.0 | 0.00 | 0.22 | 0.00 | 94 | 1002.7 |
| 20260903051033 | 46 | 185 | 1.0 | 4.0 | 0.00 | 0.22 | 0.00 | 94 | 1002.7 |
| 20260903050530 | 46 | 134 | 1.0 | 4.0 | 0.00 | 0.22 | 0.00 | 93 | 1002.7 |
| 20260903050056 | 46 | 140 | 1.0 | 3.0 | 0.00 | 0.22 | 0.00 | 93 | 1002.7 |
| 20260903045531 | 46 | 156 | 1.0 | 3.0 | 0.00 | 0.23 | 0.00 | 93 | 1002.8 |
| 20260903045031 | 46 | 128 | 1.0 | 4.0 | 0.00 | 0.23 | 0.00 | 93 | 1002.7 |
| 20260903044551 | 47 | 142 | 2.0 | 5.0 | 0.00 | 0.23 | 0.00 | 93 | 1002.7 |
| 20260903044031 | 47 | 148 | 2.0 | 5.0 | 0.00 | 0.23 | 0.00 | 93 | 1002.7 |
| 20260903043532 | 47 | 155 | 2.0 | 5.0 | 0.00 | 0.23 | 0.00 | 93 | 1002.8 |
| 20260903043146 | 47 | 155 | 1.0 | 4.0 | 0.00 | 0.23 | 0.00 | 93 | 1002.7 |
| 20260903042531 | 47 | 146 | 1.0 | 4.0 | 0.00 | 0.23 | 0.00 | 93 | 1002.8 |
| 20260903042033 | 47 | 131 | 2.0 | 4.0 | 0.00 | 0.23 | 0.00 | 93 | 1002.7 |
| 20260903041552 | 47 | 142 | 1.0 | 4.0 | 0.00 | 0.23 | 0.00 | 93 | 1002.8 |
| 20260903041030 | 47 | 0 | 0.0 | 3.0 | 0.00 | 0.23 | 0.00 | 93 | 1002.7 |
| 20260903040530 | 47 | 134 | 1.0 | 4.0 | 0.00 | 0.23 | 0.00 | 93 | 1002.7 |
| 20260903040051 | 47 | 138 | 0.0 | 4.0 | 0.00 | 0.23 | 0.00 | 93 | 1002.7 |
| 20260903035530 | 47 | 155 | 1.0 | 4.0 | 0.00 | 0.23 | 0.00 | 93 | 1002.7 |
| 20260903035031 | 47 | 150 | 0.0 | 2.0 | 0.00 | 0.23 | 0.00 | 93 | 1002.6 |
| 20260903034558 | 47 | 130 | 0.0 | 1.0 | 0.00 | 0.23 | 0.00 | 93 | 1002.7 |
| 20260903034032 | 47 | 86 | 0.0 | 2.0 | 0.00 | 0.23 | 0.00 | 93 | 1002.7 |
| 20260903033532 | 47 | 0 | 0.0 | 2.0 | 0.00 | 0.23 | 0.00 | 93 | 1002.7 |
| 20260903033055 | 47 | 146 | 0.0 | 5.0 | 0.00 | 0.23 | 0.00 | 92 | 1002.7 |
| 20260903032532 | 47 | 141 | 1.0 | 5.0 | 0.00 | 0.23 | 0.00 | 93 | 1002.7 |
| 20260903032030 | 47 | 139 | 2.0 | 5.0 | 0.00 | 0.23 | 0.00 | 93 | 1002.6 |
| 20260903031551 | 47 | 121 | 1.0 | 5.0 | 0.00 | 0.23 | 0.00 | 94 | 1002.6 |
| 20260903031033 | 47 | 0 | 0.0 | 2.0 | 0.00 | 0.23 | 0.00 | 94 | 1002.7 |
| 20260903030531 | 47 | 0 | 0.0 | 2.0 | 0.00 | 0.23 | 0.00 | 94 | 1002.7 |
| 20260903030049 | 47 | 0 | 0.0 | 2.0 | 0.00 | 0.23 | 0.00 | 94 | 1002.8 |
| 20260903025531 | 47 | 139 | 0.0 | 2.0 | 0.00 | 0.23 | 0.00 | 94 | 1002.7 |
| 20260903025031 | 47 | 160 | 0.0 | 2.0 | 0.00 | 0.23 | 0.00 | 94 | 1002.7 |
| 20260903024554 | 47 | 148 | 0.0 | 2.0 | 0.00 | 0.23 | 0.00 | 94 | 1002.7 |
| 20260903024030 | 47 | 0 | 0.0 | 3.0 | 0.00 | 0.23 | 0.00 | 94 | 1002.8 |
| 20260903023530 | 47 | 139 | 1.0 | 3.0 | 0.00 | 0.23 | 0.00 | 94 | 1002.8 |
| 20260903023051 | 47 | 154 | 1.0 | 3.0 | 0.00 | 0.23 | 0.00 | 94 | 1002.7 |
| 20260903022531 | 47 | 155 | 0.0 | 3.0 | 0.00 | 0.23 | 0.00 | 94 | 1002.7 |
| 20260903022030 | 47 | 145 | 0.0 | 2.0 | 0.00 | 0.23 | 0.00 | 94 | 1002.8 |
| 20260903021600 | 47 | 0 | 0.0 | 1.0 | 0.00 | 0.23 | 0.00 | 94 | 1002.7 |
| 20260903021032 | 47 | 0 | 0.0 | 3.0 | 0.00 | 0.23 | 0.00 | 94 | 1002.7 |
| 20260903020530 | 47 | 125 | 0.0 | 3.0 | 0.00 | 0.23 | 0.00 | 94 | 1002.7 |
| 20260903020048 | 47 | 0 | 0.0 | 3.0 | 0.00 | 0.23 | 0.00 | 94 | 1002.8 |
| 20260903015533 | 47 | 148 | 0.0 | 3.0 | 0.00 | 0.23 | 0.00 | 94 | 1002.7 |
| 20260903015031 | 47 | 0 | 0.0 | 2.0 | 0.00 | 0.23 | 0.00 | 94 | 1002.7 |
| 20260903014555 | 47 | 141 | 0.0 | 3.0 | 0.00 | 0.23 | 0.00 | 94 | 1002.8 |
| 20260903014030 | 47 | 0 | 1.0 | 3.0 | 0.00 | 0.23 | 0.00 | 94 | 1002.9 |
| 20260903013535 | 47 | 0 | 1.0 | 3.0 | 0.00 | 0.23 | 0.00 | 94 | 1002.8 |
| 20260903013103 | 47 | 142 | 0.0 | 3.0 | 0.00 | 0.23 | 0.00 | 94 | 1002.8 |
| 20260903012531 | 47 | 0 | 0.0 | 3.0 | 0.00 | 0.23 | 0.00 | 94 | 1002.8 |
| 20260903012029 | 47 | 141 | 0.0 | 3.0 | 0.00 | 0.23 | 0.00 | 94 | 1002.7 |
| 20260903011550 | 47 | 146 | 0.0 | 3.0 | 0.00 | 0.23 | 0.00 | 95 | 1002.9 |
| 20260903011031 | 47 | 144 | 1.0 | 3.0 | 0.00 | 0.23 | 0.00 | 95 | 1002.9 |
| 20260903010528 | 47 | 140 | 1.0 | 3.0 | 0.00 | 0.23 | 0.00 | 95 | 1002.7 |
| 20260903010050 | 47 | 172 | 0.0 | 2.0 | 0.00 | 0.23 | 0.00 | 95 | 1002.8 |
| 20260903005530 | 47 | 154 | 0.0 | 3.0 | 0.00 | 0.23 | 0.00 | 95 | 1002.8 |
| 20260903005032 | 47 | 210 | 0.0 | 3.0 | 0.00 | 0.23 | 0.00 | 95 | 1002.9 |
| 20260903004554 | 47 | 159 | 1.0 | 3.0 | 0.00 | 0.23 | 0.00 | 95 | 1002.8 |
| 20260903004032 | 47 | 219 | 0.0 | 3.0 | 0.00 | 0.23 | 0.00 | 95 | 1002.8 |
| 20260903003530 | 47 | 163 | 0.0 | 2.0 | 0.00 | 0.23 | 0.00 | 94 | 1002.8 |
| 20260903003057 | 47 | 288 | 0.0 | 3.0 | 0.00 | 0.23 | 0.00 | 94 | 1002.7 |
| 20260903002531 | 47 | 212 | 0.0 | 3.0 | 0.00 | 0.23 | 0.00 | 94 | 1002.8 |
| 20260903002033 | 47 | 177 | 0.0 | 5.0 | 0.00 | 0.23 | 0.00 | 95 | 1002.9 |
| 20260903001549 | 47 | 145 | 1.0 | 5.0 | 0.00 | 0.23 | 0.00 | 95 | 1002.8 |
| 20260903001030 | 47 | 211 | 0.0 | 5.0 | 0.00 | 0.23 | 0.00 | 95 | 1002.9 |
| 20260903000533 | 47 | 153 | 1.0 | 5.0 | 0.00 | 0.23 | 0.00 | 95 | 1002.8 |
| 20260903000049 | 47 | 123 | 0.0 | 3.0 | 0.00 | 0.23 | 0.00 | 95 | 1002.9 |
| 20260902235531 | 47 | 145 | 2.0 | 3.0 | 0.00 | 0.23 | 0.00 | 95 | 1002.8 |
| 20260902235030 | 47 | 170 | 1.0 | 3.0 | 0.00 | 0.23 | 0.00 | 95 | 1002.8 |
| 20260902234615 | 47 | 0 | 0.0 | 2.0 | 0.00 | 0.23 | 0.00 | 95 | 1002.8 |
| 20260902234032 | 47 | 0 | 0.0 | 3.0 | 0.00 | 0.23 | 0.00 | 95 | 1002.8 |
| 20260902233529 | 47 | 141 | 0.0 | 3.0 | 0.00 | 0.23 | 0.00 | 95 | 1002.9 |
| 20260902233054 | 47 | 141 | 1.0 | 3.0 | 0.00 | 0.23 | 0.00 | 95 | 1002.9 |
| 20260902232531 | 47 | 0 | 1.0 | 2.0 | 0.00 | 0.23 | 0.00 | 95 | 1002.8 |
| 20260902232030 | 47 | 130 | 0.0 | 2.0 | 0.00 | 0.23 | 0.00 | 95 | 1002.8 |
| 20260902231554 | 47 | 0 | 0.0 | 2.0 | 0.00 | 0.23 | 0.00 | 96 | 1002.8 |
| 20260902231031 | 46 | 245 | 1.0 | 2.0 | 0.00 | 0.23 | 0.00 | 96 | 1002.8 |
| 20260902230533 | 46 | 0 | 0.0 | 2.0 | 0.00 | 0.23 | 0.00 | 96 | 1002.8 |
| 20260902230057 | 46 | 236 | 1.0 | 2.0 | 0.00 | 0.23 | 0.00 | 96 | 1002.8 |
| 20260902225530 | 46 | 250 | 1.0 | 2.0 | 0.00 | 0.23 | 0.00 | 96 | 1002.8 |
| 20260902225030 | 46 | 243 | 0.0 | 2.0 | 0.00 | 0.23 | 0.00 | 96 | 1002.7 |
| 20260902224612 | 46 | 139 | 0.0 | 2.0 | 0.00 | 0.23 | 0.00 | 96 | 1002.8 |
| 20260902224032 | 46 | 211 | 0.0 | 2.0 | 0.00 | 0.23 | 0.00 | 96 | 1002.8 |
| 20260902223533 | 46 | 0 | 0.0 | 2.0 | 0.00 | 0.23 | 0.00 | 96 | 1002.9 |
| 20260902223054 | 46 | 0 | 0.0 | 2.0 | 0.00 | 0.23 | 0.00 | 96 | 1002.8 |
| 20260902222530 | 46 | 0 | 0.0 | 3.0 | 0.00 | 0.23 | 0.00 | 96 | 1002.7 |
| 20260902222037 | 46 | 149 | 1.0 | 3.0 | 0.00 | 0.23 | 0.00 | 96 | 1002.7 |
| 20260902221552 | 46 | 162 | 0.0 | 0.0 | 0.00 | 0.23 | 0.00 | 96 | 1002.7 |
| 20260902221031 | 46 | 0 | 0.0 | 0.0 | 0.00 | 0.23 | 0.00 | 96 | 1002.6 |
| 20260902220534 | 46 | 0 | 0.0 | 2.0 | 0.00 | 0.23 | 0.00 | 96 | 1002.6 |
| 20260902220051 | 46 | 0 | 0.0 | 2.0 | 0.00 | 0.23 | 0.00 | 96 | 1002.6 |
| 20260902215531 | 46 | 0 | 0.0 | 2.0 | 0.00 | 0.23 | 0.23 | 95 | 1002.6 |
| 20260902215030 | 46 | 243 | 0.0 | 2.0 | 0.00 | 0.23 | 0.23 | 95 | 1002.6 |
| 20260902214603 | 47 | 0 | 0.0 | 1.0 | 0.00 | 0.23 | 0.23 | 95 | 1002.6 |
| 20260902214036 | 47 | 0 | 0.0 | 1.0 | 0.00 | 0.23 | 0.23 | 95 | 1002.7 |
| 20260902213529 | 47 | 0 | 0.0 | 1.0 | 0.00 | 0.23 | 0.23 | 96 | 1002.6 |
| 20260902213057 | 47 | 0 | 0.0 | 0.0 | 0.00 | 0.23 | 0.23 | 96 | 1002.6 |
| 20260902212533 | 46 | 0 | 0.0 | 0.0 | 0.01 | 0.23 | 0.23 | 96 | 1002.7 |
| 20260902212032 | 46 | 0 | 0.0 | 0.0 | 0.03 | 0.23 | 0.23 | 96 | 1002.5 |
| 20260902211550 | 46 | 0 | 0.0 | 0.0 | 0.05 | 0.23 | 0.23 | 95 | 1002.4 |
| 20260902211030 | 46 | 0 | 0.0 | 0.0 | 0.06 | 0.23 | 0.23 | 95 | 1002.5 |
| 20260902210530 | 46 | 0 | 0.0 | 0.0 | 0.08 | 0.23 | 0.23 | 95 | 1002.4 |
| 20260902210048 | 47 | 0 | 0.0 | 0.0 | 0.09 | 0.23 | 0.23 | 95 | 1002.4 |
| 20260902205533 | 47 | 0 | 0.0 | 0.0 | 0.10 | 0.23 | 0.23 | 95 | 1002.4 |
| 20260902205049 | 47 | 0 | 0.0 | 0.0 | 0.11 | 0.23 | 0.23 | 95 | 1002.3 |
| 20260902204548 | 47 | 0 | 0.0 | 0.0 | 0.11 | 0.23 | 0.23 | 94 | 1002.3 |
| 20260902204031 | 47 | 0 | 0.0 | 0.0 | 0.13 | 0.23 | 0.23 | 94 | 1002.4 |
| 20260902203530 | 47 | 0 | 0.0 | 0.0 | 0.16 | 0.23 | 0.23 | 94 | 1002.4 |
| 20260902203053 | 47 | 0 | 0.0 | 1.0 | 0.16 | 0.23 | 0.23 | 93 | 1002.3 |
| 20260902202532 | 47 | 0 | 0.0 | 1.0 | 0.15 | 0.22 | 0.22 | 92 | 1002.4 |
| 20260902202032 | 48 | 0 | 0.0 | 4.0 | 0.13 | 0.20 | 0.20 | 91 | 1002.6 |
| 20260902201604 | 48 | 0 | 0.0 | 4.0 | 0.11 | 0.18 | 0.18 | 90 | 1002.6 |
| 20260902201033 | 48 | 326 | 1.0 | 4.0 | 0.10 | 0.17 | 0.17 | 89 | 1002.6 |
| 20260902200533 | 48 | 0 | 0.0 | 3.0 | 0.08 | 0.15 | 0.15 | 88 | 1002.7 |
| 20260902200114 | 48 | 161 | 0.0 | 5.0 | 0.06 | 0.13 | 0.13 | 89 | 1002.6 |
| 20260902195529 | 48 | 263 | 1.0 | 5.0 | 0.06 | 0.18 | 0.13 | 89 | 1002.6 |
| 20260902195030 | 48 | 140 | 1.0 | 5.0 | 0.05 | 0.17 | 0.12 | 90 | 1002.7 |
| 20260902194557 | 49 | 89 | 2.0 | 5.0 | 0.05 | 0.17 | 0.12 | 89 | 1002.7 |
| 20260902194030 | 49 | 148 | 2.0 | 7.0 | 0.02 | 0.14 | 0.09 | 88 | 1002.8 |
| 20260902193530 | 50 | 129 | 2.0 | 9.0 | 0.00 | 0.12 | 0.07 | 88 | 1002.7 |
| 20260902193054 | 51 | 81 | 3.0 | 10.0 | 0.00 | 0.12 | 0.07 | 90 | 1002.8 |
| 20260902192531 | 50 | 257 | 1.0 | 10.0 | 0.00 | 0.12 | 0.07 | 92 | 1002.9 |
| 20260902192031 | 50 | 152 | 3.0 | 7.0 | 0.00 | 0.12 | 0.07 | 94 | 1002.7 |
| 20260902191551 | 50 | 0 | 0.0 | 0.0 | 0.00 | 0.12 | 0.07 | 94 | 1002.4 |
| 20260902191031 | 50 | 0 | 0.0 | 0.0 | 0.00 | 0.12 | 0.07 | 94 | 1002.3 |
| 20260902190532 | 50 | 0 | 0.0 | 0.0 | 0.00 | 0.12 | 0.07 | 94 | 1002.2 |
| 20260902190059 | 50 | 0 | 0.0 | 0.0 | 0.00 | 0.12 | 0.07 | 95 | 1002.0 |
| 20260902185531 | 50 | 0 | 0.0 | 0.0 | 0.00 | 0.23 | 0.07 | 95 | 1001.9 |
| 20260902185031 | 50 | 0 | 0.0 | 0.0 | 0.00 | 0.23 | 0.07 | 95 | 1001.9 |
| 20260902184549 | 50 | 0 | 0.0 | 0.0 | 0.00 | 0.23 | 0.07 | 95 | 1001.9 |
| 20260902184030 | 50 | 0 | 0.0 | 0.0 | 0.00 | 0.23 | 0.07 | 95 | 1001.9 |
| 20260902183531 | 50 | 0 | 0.0 | 0.0 | 0.00 | 0.23 | 0.07 | 95 | 1002.0 |
| 20260902183107 | 51 | 0 | 0.0 | 0.0 | 0.00 | 0.23 | 0.07 | 95 | 1001.8 |
| 20260902182533 | 51 | 0 | 0.0 | 0.0 | 0.00 | 0.23 | 0.07 | 95 | 1001.8 |
| 20260902182031 | 51 | 0 | 0.0 | 0.0 | 0.00 | 0.23 | 0.07 | 95 | 1001.7 |
| 20260902181554 | 51 | 0 | 0.0 | 0.0 | 0.00 | 0.23 | 0.07 | 95 | 1001.6 |
| 20260902181031 | 51 | 0 | 0.0 | 0.0 | 0.00 | 0.23 | 0.07 | 95 | 1001.7 |
| 20260902180528 | 51 | 0 | 0.0 | 0.0 | 0.00 | 0.23 | 0.07 | 95 | 1001.7 |
| 20260902180054 | 51 | 0 | 0.0 | 0.0 | 0.00 | 0.23 | 0.07 | 95 | 1001.7 |
| 20260902175531 | 51 | 0 | 0.0 | 0.0 | 0.00 | 0.23 | 0.07 | 95 | 1001.7 |
| 20260902175034 | 52 | 0 | 0.0 | 0.0 | 0.00 | 0.23 | 0.07 | 95 | 1001.7 |
| 20260902174547 | 52 | 0 | 0.0 | 0.0 | 0.00 | 0.23 | 0.07 | 95 | 1001.6 |
| 20260902174030 | 52 | 0 | 0.0 | 0.0 | 0.00 | 0.23 | 0.07 | 95 | 1001.7 |
| 20260902173530 | 52 | 0 | 0.0 | 0.0 | 0.00 | 0.23 | 0.07 | 95 | 1001.7 |
| 20260902173053 | 52 | 0 | 0.0 | 0.0 | 0.00 | 0.23 | 0.07 | 95 | 1001.8 |
| 20260902172532 | 52 | 0 | 0.0 | 0.0 | 0.00 | 0.23 | 0.07 | 95 | 1001.8 |
| 20260902172033 | 52 | 0 | 0.0 | 0.0 | 0.00 | 0.23 | 0.07 | 95 | 1001.8 |
| 20260902171551 | 52 | 0 | 0.0 | 0.0 | 0.00 | 0.23 | 0.07 | 95 | 1001.8 |
| 20260902171030 | 52 | 0 | 0.0 | 0.0 | 0.00 | 0.23 | 0.07 | 95 | 1001.9 |
| 20260902170533 | 52 | 0 | 0.0 | 0.0 | 0.00 | 0.23 | 0.07 | 95 | 1001.9 |
| 20260902170055 | 52 | 0 | 0.0 | 0.0 | 0.01 | 0.23 | 0.07 | 95 | 1001.8 |
| 20260902165531 | 52 | 0 | 0.0 | 0.0 | 0.01 | 0.23 | 0.07 | 94 | 1001.7 |
| 20260902165030 | 52 | 0 | 0.0 | 0.0 | 0.01 | 0.23 | 0.07 | 94 | 1001.7 |
| 20260902164553 | 52 | 0 | 0.0 | 0.0 | 0.01 | 0.23 | 0.07 | 94 | 1001.6 |
| 20260902164030 | 52 | 0 | 0.0 | 0.0 | 0.03 | 0.23 | 0.07 | 93 | 1001.6 |
| 20260902163532 | 52 | 0 | 0.0 | 0.0 | 0.04 | 0.23 | 0.07 | 93 | 1001.6 |
| 20260902163049 | 52 | 0 | 0.0 | 0.0 | 0.04 | 0.23 | 0.07 | 93 | 1001.6 |
| 20260902162528 | 52 | 0 | 0.0 | 0.0 | 0.04 | 0.23 | 0.07 | 92 | 1001.6 |
| 20260902162033 | 52 | 0 | 0.0 | 0.0 | 0.04 | 0.23 | 0.07 | 92 | 1001.6 |
| 20260902161556 | 52 | 0 | 0.0 | 2.0 | 0.04 | 0.23 | 0.07 | 92 | 1001.6 |
| 20260902161029 | 52 | 0 | 0.0 | 2.0 | 0.04 | 0.23 | 0.07 | 93 | 1001.6 |
| 20260902160531 | 51 | 241 | 0.0 | 2.0 | 0.04 | 0.23 | 0.07 | 93 | 1001.6 |
| 20260902160055 | 52 | 314 | 0.0 | 2.0 | 0.03 | 0.22 | 0.06 | 92 | 1001.5 |
| 20260902155530 | 52 | 0 | 0.0 | 1.0 | 0.03 | 0.22 | 0.06 | 91 | 1001.6 |
| 20260902155030 | 52 | 0 | 0.0 | 0.0 | 0.03 | 0.22 | 0.06 | 90 | 1001.7 |
| 20260902154551 | 52 | 0 | 0.0 | 2.0 | 0.02 | 0.21 | 0.05 | 89 | 1001.8 |
| 20260902154030 | 53 | 0 | 0.0 | 2.0 | 0.01 | 0.20 | 0.04 | 88 | 1002.1 |
| 20260902153531 | 54 | 304 | 1.0 | 4.0 | 0.00 | 0.19 | 0.03 | 86 | 1002.2 |
| 20260902153047 | 54 | 0 | 0.0 | 4.0 | 0.00 | 0.19 | 0.03 | 84 | 1002.3 |
| 20260902152530 | 54 | 158 | 0.0 | 4.0 | 0.00 | 0.19 | 0.03 | 83 | 1002.3 |
| 20260902152031 | 54 | 0 | 0.0 | 1.0 | 0.00 | 0.19 | 0.03 | 82 | 1002.3 |
| 20260902151546 | 55 | 0 | 0.0 | 2.0 | 0.00 | 0.19 | 0.03 | 79 | 1002.2 |
| 20260902151029 | 56 | 0 | 0.0 | 6.0 | 0.00 | 0.19 | 0.03 | 77 | 1002.2 |
| 20260902150531 | 55 | 0 | 1.0 | 7.0 | 0.00 | 0.19 | 0.03 | 76 | 1002.0 |
| 20260902150053 | 55 | 312 | 1.0 | 7.0 | 0.00 | 0.19 | 0.03 | 79 | 1002.0 |
| 20260902145530 | 55 | 0 | 0.0 | 3.0 | 0.00 | 0.19 | 0.03 | 80 | 1001.8 |
| 20260902145027 | 55 | 12 | 0.0 | 1.0 | 0.00 | 0.19 | 0.03 | 80 | 1001.9 |
| 20260902144549 | 56 | 281 | 0.0 | 4.0 | 0.00 | 0.19 | 0.03 | 78 | 1001.7 |
| 20260902144053 | 56 | 0 | 0.0 | 5.0 | 0.00 | 0.19 | 0.03 | 77 | 1001.8 |
| 20260902143529 | 56 | 30 | 1.0 | 9.0 | 0.00 | 0.19 | 0.03 | 72 | 1002.0 |
| 20260902143049 | 56 | 24 | 3.0 | 9.0 | 0.00 | 0.19 | 0.03 | 74 | 1002.0 |
| 20260902142531 | 56 | 80 | 2.0 | 6.0 | 0.00 | 0.19 | 0.03 | 73 | 1002.1 |
| 20260902142031 | 56 | 56 | 1.0 | 9.0 | 0.00 | 0.19 | 0.03 | 73 | 1002.2 |
| 20260902141558 | 56 | 0 | 1.0 | 10.0 | 0.00 | 0.19 | 0.03 | 73 | 1002.2 |
| 20260902141029 | 57 | 358 | 4.0 | 10.0 | 0.00 | 0.19 | 0.03 | 68 | 1002.2 |
| 20260902140530 | 57 | 23 | 2.0 | 7.0 | 0.00 | 0.19 | 0.03 | 69 | 1002.3 |
| 20260902140052 | 58 | 44 | 3.0 | 9.0 | 0.00 | 0.19 | 0.03 | 69 | 1002.2 |
| 20260902135529 | 58 | 49 | 3.0 | 9.0 | 0.00 | 0.19 | 0.03 | 69 | 1002.2 |
| 20260902135030 | 59 | 359 | 3.0 | 9.0 | 0.00 | 0.19 | 0.03 | 68 | 1002.2 |
| 20260902134551 | 59 | 70 | 1.0 | 9.0 | 0.00 | 0.19 | 0.03 | 68 | 1002.3 |
| 20260902134031 | 58 | 57 | 3.0 | 10.0 | 0.00 | 0.19 | 0.03 | 68 | 1002.2 |
| 20260902133530 | 58 | 17 | 3.0 | 12.0 | 0.00 | 0.19 | 0.03 | 68 | 1002.2 |
| 20260902133050 | 58 | 20 | 4.0 | 12.0 | 0.00 | 0.19 | 0.03 | 67 | 1002.3 |
| 20260902132532 | 58 | 73 | 4.0 | 12.0 | 0.00 | 0.19 | 0.03 | 68 | 1002.3 |
| 20260902132031 | 59 | 309 | 3.0 | 12.0 | 0.00 | 0.19 | 0.03 | 68 | 1002.4 |
| 20260902131604 | 59 | 30 | 4.0 | 12.0 | 0.00 | 0.19 | 0.03 | 69 | 1002.3 |
| 20260902131030 | 59 | 39 | 4.0 | 10.0 | 0.00 | 0.19 | 0.03 | 68 | 1002.4 |
| 20260902130530 | 59 | 60 | 3.0 | 10.0 | 0.00 | 0.19 | 0.03 | 71 | 1002.3 |
| 20260902130052 | 60 | 84 | 3.0 | 13.0 | 0.00 | 0.19 | 0.03 | 73 | 1002.2 |
| 20260902125530 | 60 | 86 | 4.0 | 13.0 | 0.00 | 0.19 | 0.03 | 72 | 1002.4 |
| 20260902125031 | 60 | 41 | 3.0 | 6.0 | 0.00 | 0.19 | 0.03 | 73 | 1002.4 |
| 20260902124558 | 60 | 28 | 2.0 | 7.0 | 0.00 | 0.19 | 0.03 | 77 | 1002.4 |
| 20260902124030 | 60 | 46 | 0.0 | 7.0 | 0.00 | 0.19 | 0.03 | 78 | 1002.2 |
| 20260902123531 | 59 | 53 | 3.0 | 7.0 | 0.00 | 0.19 | 0.03 | 78 | 1002.2 |
| 20260902123047 | 59 | 69 | 1.0 | 7.0 | 0.00 | 0.19 | 0.03 | 77 | 1002.2 |
| 20260902122530 | 59 | 32 | 3.0 | 7.0 | 0.00 | 0.19 | 0.03 | 75 | 1002.1 |
| 20260902122031 | 60 | 63 | 1.0 | 5.0 | 0.00 | 0.19 | 0.03 | 77 | 1002.2 |
| 20260902121552 | 60 | 41 | 2.0 | 5.0 | 0.00 | 0.19 | 0.03 | 78 | 1002.2 |
| 20260902121031 | 59 | 58 | 2.0 | 6.0 | 0.00 | 0.19 | 0.03 | 79 | 1002.3 |
| 20260902120530 | 59 | 51 | 3.0 | 6.0 | 0.00 | 0.19 | 0.03 | 78 | 1002.3 |
| 20260902120053 | 59 | 47 | 0.0 | 5.0 | 0.00 | 0.19 | 0.03 | 78 | 1002.4 |
| 20260902115529 | 59 | 56 | 2.0 | 5.0 | 0.00 | 0.19 | 0.03 | 79 | 1002.3 |
| 20260902115032 | 59 | 59 | 0.0 | 4.0 | 0.00 | 0.19 | 0.03 | 79 | 1002.3 |
| 20260902114549 | 59 | 0 | 1.0 | 4.0 | 0.00 | 0.19 | 0.03 | 79 | 1002.3 |
| 20260902114031 | 59 | 41 | 1.0 | 4.0 | 0.00 | 0.19 | 0.03 | 79 | 1002.2 |
| 20260902113528 | 59 | 0 | 0.0 | 4.0 | 0.00 | 0.19 | 0.03 | 81 | 1002.3 |
| 20260902113105 | 59 | 0 | 0.0 | 4.0 | 0.00 | 0.19 | 0.03 | 79 | 1002.4 |
| 20260902112530 | 59 | 0 | 0.0 | 1.0 | 0.00 | 0.19 | 0.03 | 80 | 1002.4 |
| 20260902112033 | 58 | 0 | 0.0 | 1.0 | 0.00 | 0.19 | 0.03 | 80 | 1002.4 |
| 20260902111600 | 58 | 0 | 0.0 | 3.0 | 0.00 | 0.19 | 0.03 | 81 | 1002.3 |
| 20260902111031 | 58 | 0 | 0.0 | 3.0 | 0.00 | 0.19 | 0.03 | 80 | 1002.3 |
| 20260902110531 | 58 | 0 | 0.0 | 1.0 | 0.00 | 0.19 | 0.03 | 80 | 1002.3 |
| 20260902110050 | 58 | 0 | 0.0 | 2.0 | 0.00 | 0.19 | 0.03 | 80 | 1002.4 |
| 20260902105529 | 58 | 63 | 0.0 | 2.0 | 0.00 | 0.19 | 0.03 | 80 | 1002.3 |
| 20260902105030 | 58 | 51 | 0.0 | 2.0 | 0.00 | 0.19 | 0.03 | 80 | 1002.2 |
| 20260902104549 | 58 | 0 | 0.0 | 4.0 | 0.00 | 0.19 | 0.03 | 80 | 1002.3 |
| 20260902104028 | 58 | 0 | 1.0 | 4.0 | 0.00 | 0.19 | 0.03 | 79 | 1002.4 |
| 20260902103533 | 58 | 0 | 0.0 | 5.0 | 0.00 | 0.19 | 0.03 | 80 | 1002.3 |